Location: Champs
(48.8539°N, 2.6040°E)
Time: 06:09:59
(UTC+00:00)

COSMOS 2487 - Pass Details

Date: 26 October 2021
Orbit: 420 x 427 km, 74.7° (Epoch: 04 December)

Event Time Altitude Azimuth Distance (km) Brightness Sun altitude
Exits shadow 05:12:25 13° 228° (SW) 1,320 4.4 -12.9°
Maximum altitude 05:15:05 40° 297° (WNW) 634 2.7 -12.4°
Drops below altitude 10° 05:18:15 10° 9° (N) 1,517 5.1 -11.9°
Sets 05:20:24 0° 17° (NNE) 2,389 6.2 -11.5°
